Find VesselSat1

NORAD ID: 37840 Int'l Des: 2011-058 Owner: LUXS/ORBC Country: L operational
LEOCIRCULAR

現在のビュー

3D地球を読み込み中...

About VesselSat1

VesselSat1 (NORAD 37840) is a satellite launched Oct 12, 2011 by LUXS/ORBC of L. It operates in LEO, CIRCULAR orbit with a mass of 29.00 kg.

次回通過

Passes for default location (London). Set your location on the main map for personalized predictions.

高度履歴

Loading altitude history...

軌道要素

1 37840U 11058C 26195.47686593 .00000314 00000-0 26492-4 0 9993
2 37840 19.9609 239.9600 0013549 181.4694 178.5672 14.11440964761792
Epoch: Jul 14, 2026 • Age: 10 hours

現在のステータス

高度 860.5 km
遠地点 / 近地点 N/A
速度 7.42 km/s
衛星直下点 9.04°N, 4.13°E
打ち上げ日 Oct 12, 2011
運用期間 14.7 years
タイプ other

技術仕様

分類 Payload
質量 29.00 kg
乾燥質量 29.00 kg
総質量 29.00 kg
長さ 0.30 m
直径 0.30 m
スパン 0.30 m
形状 Box
製造者 LUXS
バスタイプ AIS
フェーズステータス In Orbit
所有者/国 LUXS/ORBC/L

Most Searched